Location: N�rnberg
(49.4471°N, 11.0632°E)
Time: 21:05:04
(UTC+02:00)

VELOX 1 - Pass Details

Date: 20 April 2026
Orbit: 569 x 580 km, 98.3° (Epoch: 13 May)

Event Time Altitude Azimuth Distance (km) Brightness Sun altitude
Rises 02:24:41 0° 356° (N) 2,785 ? -27.2°
Reaches altitude 10° 02:28:32 10° 318° (NW) 1,881 ? -27.0°
Maximum altitude 02:29:27 11° 305° (NW) 1,836 ? -26.9°
Enters shadow 02:29:40 11° 302° (WNW) 1,838 ? -26.9°
